Temp
-11 -10 -10 -10 -10 -10 -10 -10 -10 -10 -10 -10 -10 -10 -10 -10 -10 -10 -10 -10 -10 -10 -10 -10 -10 -10 -10 -10 -10 -10 -9 -10 -9 -9 -9 -9 -10 -10 -9 -9 -10 -10 -9 -10 -10 -10 -10
-11 -10 -10 -10 -10 -10 -10 -9 -10 -10 -10 -11 -11 -11 -11 -10 -10 -10 -10 -10 -10 -10 -10 -10 -10 -10 -10 -10 -10 -10 -10 -10 -9 -9 -9 -9 -9 -9 -9 -9 -10 -10 -10 -10 -10 -10 -11
-10 -10 -10 -10 -10 -10 -10 -10 -10 -10 -10 -11 -11 -11 -11 -11 -11 -11 -11 -10 -10 -10 -10 -10 -10 -10 -10 -10 -10 -9 -9 -9 -9 -9 -9 -9 -9 -10 -10 -10 -10 -10 -10 -10 -10 -11 -11
-10 -10 -10 -10 -10 -10 -10 -10 -10 -10 -10 -11 -11 -11 -11 -11 -11 -11 -11 -11 -11 -10 -10 -10 -10 -10 -10 -10 -10 -10 -10 -10 -10 -9 -9 -9 -10 -10 -10 -10 -10 -10 -10 -10 -11 -11 -11
-11 -11 -10 -10 -10 -10 -10 -10 -10 -11 -11 -11 -11 -11 -11 -11 -11 -11 -11 -11 -11 -10 -10 -10 -10 -10 -10 -10 -9 -10 -10 -10 -9 -9 -9 -10 -10 -10 -10 -10 -10 -10 -10 -11 -11 -11 -12
-11 -11 -10 -10 -10 -10 -10 -10 -10 -11 -11 -11 -12 -11 -11 -11 -11 -11 -11 -11 -10 -10 -10 -10 -10 -10 -10 -10 -10 -10 -10 -10 -10 -9 -10 -10 -10 -10 -10 -10 -10 -10 -10 -11 -11 -12 -12
-11 -11 -10 -10 -10 -10 -10 -10 -10 -11 -11 -11 -11 -11 -11 -11 -11 -11 -11 -10 -10 -10 -10 -10 -10 -10 -10 -10 -10 -10 -10 -10 -10 -10 -10 -11 -11 -10 -10 -10 -11 -10 -11 -11 -11 -12 -12
-11 -11 -11 -10 -10 -10 -10 -11 -11 -11 -11 -11 -11 -11 -11 -11 -11 -11 -11 -11 -11 -10 -10 -10 -10 -10 -10 -10 -10 -10 -10 -10 -10 -10 -11 -11 -11 -11 -11 -10 -11 -11 -11 -11 -11 -11 -11
-11 -11 -10 -10 -10 -11 -11 -11 -11 -11 -11 -11 -11 -11 -11 -11 -11 -11 -11 -11 -10 -10 -10 -10 -10 -11 -11 -11 -11 -11 -11 -11 -11 -11 -11 -11 -11 -11 -11 -10 -11 -11 -11 -11 -11 -11 -12
-11 -11 -10 -10 -11 -11 -11 -11 -11 -11 -11 -11 -11 -11 -11 -11 -11 -11 -11 -10 -10 -10 -11 -11 -11 -11 -11 -11 -12 -12 -12 -11 -11 -11 -11 -11 -11 -10 -11 -11 -11 -11 -11 -11 -11 -11 -11
-11 -11 -11 -11 -11 -11 -11 -11 -11 -11 -11 -11 -11 -11 -11 -11 -11 -11 -11 -11 -11 -11 -11 -11 -12 -12 -12 -12 -12 -12 -12 -12 -12 -12 -12 -11 -11 -11 -11 -11 -11 -11 -11 -11 -11 -11 -11
-12 -11 -11 -11 -11 -11 -11 -11 -11 -11 -11 -11 -11 -11 -11 -11 -11 -11 -11 -11 -11 -11 -12 -12 -12 -12 -12 -12 -12 -12 -12 -12 -12 -12 -12 -12 -12 -12 -11 -11 -11 -11 -10 -11 -11 -11 -11
-12 -11 -11 -11 -11 -11 -11 -11 -11 -11 -11 -11 -11 -11 -11 -11 -11 -11 -11 -11 -12 -12 -12 -12 -12 -12 -12 -12 -12 -13 -12 -12 -12 -12 -12 -12 -12 -11 -11 -11 -11 -11 -11 -11 -11 -11 -11
-12 -12 -12 -12 -12 -12 -12 -12 -12 -12 -12 -12 -12 -11 -12 -12 -12 -12 -12 -12 -12 -12 -12 -12 -12 -12 -13 -12 -12 -13 -12 -12 -12 -12 -11 -11 -11 -11 -11 -12 -12 -12 -12 -12 -12 -12 -11
-12 -12 -12 -12 -12 -12 -12 -12 -12 -12 -12 -12 -12 -12 -12 -12 -12 -12 -12 -12 -12 -12 -12 -12 -13 -13 -13 -13 -12 -12 -12 -12 -12 -12 -12 -11 -12 -12 -12 -12 -12 -12 -12 -12 -12 -12 -12
-12 -12 -12 -12 -12 -12 -12 -12 -12 -12 -12 -12 -12 -12 -12 -12 -12 -12 -13 -13 -13 -13 -13 -13 -13 -13 -13 -12 -12 -13 -12 -12 -12 -12 -12 -12 -11 -12 -12 -12 -13 -13 -13 -13 -13 -13 -13
-13 -13 -12 -12 -12 -12 -12 -12 -12 -12 -12 -12 -12 -13 -13 -13 -13 -13 -13 -13 -13 -13 -13 -13 -13 -13 -13 -13 -13 -13 -13 -12 -12 -12 -12 -12 -12 -13 -13 -12 -13 -13 -13 -13 -14 -14 -14
-13 -13 -13 -13 -12 -12 -12 -12 -12 -12 -13 -13 -13 -13 -13 -13 -13 -13 -13 -13 -13 -13 -13 -13 -13 -13 -13 -13 -13 -13 -13 -13 -12 -12 -12 -12 -12 -13 -13 -13 -13 -14 -14 -14 -14 -14 -14
-13 -13 -13 -13 -13 -13 -13 -13 -13 -13 -13 -13 -13 -13 -13 -13 -13 -13 -13 -13 -13 -13 -13 -14 -14 -14 -13 -13 -13 -13 -13 -13 -13 -13 -12 -13 -13 -13 -13 -13 -14 -14 -14 -14 -15 -15 -15
-13 -13 -13 -13 -13 -13 -13 -13 -13 -13 -13 -13 -13 -13 -13 -13 -13 -13 -13 -13 -13 -14 -14 -14 -14 -14 -14 -14 -13 -13 -13 -13 -13 -13 -13 -13 -14 -15 -15 -15 -15 -15 -15 -15 -16 -16 -15
-13 -13 -13 -13 -13 -13 -13 -13 -13 -13 -13 -13 -13 -13 -13 -13 -13 -13 -13 -13 -13 -14 -14 -14 -14 -14 -14 -13 -13 -13 -13 -13 -13 -13 -14 -14 -13 -14 -15 -15 -14 -15 -15 -15 -16 -16 -17
-13 -13 -13 -13 -13 -13 -13 -13 -13 -13 -13 -13 -13 -13 -13 -13 -13 -13 -13 -14 -14 -14 -14 -14 -14 -14 -14 -14 -13 -13 -13 -13 -13 -14 -14 -14 -14 -13 -14 -14 -14 -15 -15 -15 -17 -18 -17
-13 -13 -13 -13 -13 -13 -13 -13 -13 -13 -13 -13 -13 -13 -13 -13 -13 -14 -14 -14 -14 -14 -13 -14 -14 -14 -14 -14 -14 -13 -13 -13 -13 -14 -14 -14 -14 -14 -13 -13 -14 -15 -15 -15 -16 -17 -16
-13 -13 -13 -13 -13 -13 -13 -13 -13 -13 -13 -13 -13 -13 -13 -14 -14 -14 -14 -14 -14 -14 -14 -14 -13 -13 -13 -14 -13 -13 -13 -13 -13 -14 -15 -15 -15 -14 -13 -13 -13 -16 -16 -16 -15 -16 -16
-13 -13 -13 -13 -13 -13 -13 -13 -13 -13 -14 -13 -14 -14 -13 -13 -14 -14 -14 -14 -14 -14 -14 -13 -13 -14 -14 -14 -13 -13 -13 -13 -13 -14 -15 -15 -16 -15 -14 -14 -14 -16 -16 -16 -15 -15 -16
-14 -14 -14 -13 -13 -14 -14 -14 -14 -14 -13 -13 -14 -14 -13 -13 -13 -14 -14 -14 -14 -14 -14 -14 -14 -14 -14 -14 -14 -14 -13 -14 -14 -14 -15 -16 -16 -15 -15 -15 -15 -16 -16 -15 -15 -15 -16
-14 -14 -14 -14 -14 -13 -14 -14 -14 -14 -14 -14 -13 -13 -12 -12 -13 -13 -14 -14 -14 -14 -14 -14 -15 -15 -14 -14 -14 -14 -13 -14 -14 -15 -15 -16 -17 -16 -15 -15 -15 -17 -16 -16 -17 -16 -16
-14 -14 -14 -14 -14 -14 -14 -14 -14 -13 -14 -14 -13 -13 -13 -12 -13 -13 -14 -14 -14 -14 -15 -14 -15 -14 -15 -15 -14 -14 -13 -14 -14 -15 -16 -16 -17 -16 -16 -16 -16 -17 -17 -18 -17 -16 -17
-14 -15 -14 -14 -14 -14 -14 -14 -14 -14 -14 -14 -14 -14 -14 -13 -13 -13 -13 -14 -14 -15 -15 -14 -15 -15 -15 -15 -15 -15 -15 -15 -15 -15 -17 -17 -18 -17 -17 -16 -17 -18 -17 -17 -18 -18 -18
Height
5872 5873 5875 5877 5878 5879 5880 5880 5880 5879 5879 5879 5879 5879 5879 5879 5879 5878 5878 5877 5877 5876 5876 5874 5873 5872 5870 5869 5867 5866 5864 5862 5861 5859 5857 5855 5853 5852 5850 5848 5844 5841 5837 5833 5828 5824 5819
5873 5874 5876 5877 5878 5879 5879 5879 5878 5877 5877 5877 5877 5877 5877 5877 5877 5877 5877 5876 5876 5875 5874 5873 5872 5870 5869 5868 5865 5863 5861 5860 5858 5856 5854 5852 5850 5848 5846 5844 5841 5837 5833 5829 5824 5819 5813
5873 5874 5876 5877 5878 5879 5878 5877 5876 5876 5876 5875 5875 5875 5875 5876 5876 5876 5876 5876 5875 5874 5873 5872 5871 5869 5868 5867 5864 5861 5859 5857 5855 5853 5851 5849 5847 5845 5843 5841 5837 5833 5830 5825 5821 5815 5808
5872 5874 5876 5877 5878 5878 5877 5876 5875 5875 5874 5874 5874 5874 5874 5875 5875 5875 5875 5875 5874 5873 5873 5871 5870 5868 5865 5863 5861 5858 5856 5854 5852 5850 5848 5845 5843 5842 5840 5837 5833 5830 5826 5822 5816 5810 5804
5871 5873 5875 5876 5877 5876 5875 5875 5875 5874 5872 5872 5873 5873 5873 5874 5874 5875 5874 5874 5873 5873 5871 5870 5868 5866 5864 5861 5858 5856 5853 5851 5849 5846 5843 5841 5840 5838 5836 5833 5831 5826 5823 5817 5812 5806 5800
5871 5872 5874 5875 5875 5875 5874 5874 5874 5873 5871 5871 5871 5872 5873 5874 5874 5874 5874 5873 5873 5871 5870 5868 5866 5865 5861 5858 5855 5852 5849 5847 5845 5842 5839 5837 5836 5834 5832 5829 5827 5824 5820 5814 5807 5801 5793
5869 5871 5873 5874 5874 5874 5874 5874 5874 5872 5871 5870 5870 5871 5872 5873 5873 5873 5874 5873 5873 5872 5868 5866 5863 5860 5857 5855 5852 5849 5846 5843 5841 5838 5835 5834 5832 5830 5829 5826 5822 5818 5813 5809 5803 5795 5788
5869 5870 5871 5872 5873 5873 5873 5874 5873 5873 5871 5870 5870 5871 5872 5872 5873 5873 5873 5872 5870 5870 5866 5862 5860 5857 5855 5851 5848 5845 5843 5841 5837 5835 5832 5832 5829 5827 5824 5821 5816 5813 5808 5803 5798 5790 5782
5868 5869 5870 5871 5871 5872 5873 5873 5873 5873 5872 5871 5871 5872 5872 5873 5873 5873 5871 5870 5868 5865 5863 5861 5858 5855 5852 5850 5846 5843 5840 5837 5834 5832 5830 5828 5826 5823 5820 5816 5812 5807 5801 5795 5790 5785 5777
5867 5868 5869 5870 5870 5871 5872 5873 5873 5873 5872 5872 5872 5872 5872 5873 5873 5871 5870 5867 5865 5862 5860 5859 5856 5853 5850 5846 5844 5840 5837 5835 5832 5829 5826 5824 5821 5818 5814 5810 5806 5801 5794 5787 5781 5776 5770
5866 5867 5868 5868 5869 5870 5871 5872 5873 5873 5872 5873 5872 5872 5872 5872 5871 5870 5869 5866 5863 5861 5859 5857 5853 5850 5847 5845 5841 5837 5834 5831 5828 5826 5823 5820 5816 5813 5809 5805 5799 5793 5785 5779 5773 5768 5763
5865 5866 5867 5868 5869 5870 5871 5872 5873 5873 5873 5873 5873 5872 5872 5871 5870 5869 5866 5864 5862 5860 5856 5854 5851 5848 5845 5842 5838 5835 5832 5830 5826 5823 5820 5816 5812 5808 5803 5799 5794 5787 5780 5774 5767 5760 5754
5864 5865 5866 5867 5868 5869 5870 5871 5872 5872 5872 5872 5871 5871 5870 5869 5868 5866 5864 5862 5860 5857 5855 5853 5849 5846 5843 5840 5837 5833 5829 5826 5823 5822 5818 5813 5807 5803 5798 5793 5790 5784 5774 5766 5759 5753 5747
5862 5863 5865 5866 5867 5869 5870 5871 5871 5871 5871 5870 5870 5869 5868 5866 5865 5863 5861 5859 5857 5854 5851 5849 5846 5843 5840 5838 5835 5830 5826 5823 5819 5815 5812 5810 5805 5799 5794 5789 5783 5777 5769 5760 5751 5747 5742
5860 5862 5863 5864 5866 5867 5868 5869 5869 5869 5869 5868 5867 5866 5865 5864 5862 5860 5859 5856 5854 5851 5849 5846 5843 5840 5837 5834 5830 5827 5823 5819 5814 5810 5806 5800 5800 5793 5787 5782 5777 5769 5761 5753 5746 5740 5733
5858 5859 5860 5862 5864 5865 5866 5866 5867 5867 5866 5866 5865 5864 5863 5861 5859 5857 5856 5853 5851 5848 5845 5842 5840 5837 5833 5830 5826 5822 5818 5815 5810 5805 5800 5795 5791 5786 5780 5774 5770 5763 5755 5746 5737 5728 5721
5855 5856 5857 5859 5860 5862 5863 5863 5863 5863 5863 5863 5862 5861 5859 5857 5856 5854 5852 5850 5847 5844 5841 5839 5835 5832 5829 5825 5821 5817 5813 5809 5804 5798 5792 5787 5783 5780 5775 5767 5762 5757 5748 5739 5730 5724 5714
5853 5854 5855 5856 5857 5858 5858 5859 5859 5859 5859 5859 5858 5857 5855 5854 5853 5850 5848 5846 5843 5840 5837 5833 5830 5826 5822 5817 5815 5811 5807 5802 5797 5791 5785 5780 5775 5771 5767 5758 5754 5749 5740 5732 5722 5716 5708
5849 5850 5851 5852 5853 5854 5854 5855 5855 5855 5855 5854 5853 5852 5851 5849 5847 5845 5842 5840 5837 5835 5831 5827 5823 5819 5815 5810 5805 5804 5799 5795 5790 5786 5779 5773 5767 5761 5759 5750 5744 5742 5733 5723 5715 5707 5700
5844 5845 5847 5847 5848 5849 5850 5850 5850 5850 5849 5849 5848 5847 5846 5844 5841 5839 5836 5833 5830 5828 5824 5820 5815 5811 5807 5803 5798 5794 5789 5786 5783 5778 5772 5766 5762 5758 5754 5745 5738 5735 5727 5715 5705 5694 5687
5839 5840 5841 5842 5842 5843 5844 5844 5844 5843 5843 5843 5842 5840 5838 5836 5834 5831 5829 5826 5822 5819 5817 5811 5808 5802 5798 5793 5789 5786 5783 5779 5776 5771 5765 5760 5754 5748 5747 5737 5728 5726 5716 5703 5692 5684 5674
5831 5833 5834 5835 5836 5836 5837 5836 5836 5836 5835 5835 5833 5832 5831 5828 5826 5824 5820 5817 5813 5810 5807 5803 5798 5793 5792 5786 5780 5773 5771 5768 5765 5761 5755 5750 5742 5737 5738 5728 5718 5714 5704 5689 5680 5673 5665
5822 5824 5826 5827 5827 5828 5828 5828 5828 5828 5827 5825 5824 5823 5822 5821 5818 5816 5812 5807 5804 5799 5797 5793 5787 5783 5781 5778 5772 5768 5764 5759 5754 5749 5744 5739 5732 5727 5723 5718 5704 5703 5693 5679 5669 5662 5654
5813 5815 5816 5817 5818 5818 5818 5819 5819 5818 5817 5816 5814 5811 5809 5809 5808 5805 5801 5797 5793 5789 5784 5780 5776 5771 5770 5766 5763 5760 5756 5750 5744 5740 5735 5729 5723 5718 5714 5706 5694 5692 5679 5669 5661 5654 5642
5803 5804 5806 5807 5807 5807 5808 5808 5808 5808 5805 5804 5802 5799 5795 5794 5797 5796 5790 5785 5782 5778 5773 5767 5763 5761 5758 5756 5752 5749 5746 5740 5734 5730 5725 5719 5713 5707 5699 5689 5680 5682 5665 5657 5652 5652 5633
5792 5793 5795 5795 5795 5795 5796 5796 5795 5794 5793 5791 5790 5785 5782 5780 5783 5781 5778 5775 5771 5766 5761 5757 5754 5751 5750 5745 5743 5738 5731 5726 5721 5715 5709 5705 5700 5697 5686 5673 5666 5665 5655 5649 5643 5640 5626
5780 5781 5782 5783 5783 5783 5783 5782 5781 5781 5780 5777 5776 5773 5769 5767 5767 5765 5763 5761 5759 5754 5748 5745 5743 5741 5740 5736 5732 5728 5719 5715 5710 5704 5699 5692 5691 5685 5673 5661 5661 5649 5641 5635 5628 5618 5619
5766 5768 5769 5769 5770 5769 5769 5769 5768 5767 5766 5764 5763 5761 5759 5754 5753 5752 5751 5750 5747 5743 5738 5735 5732 5730 5726 5724 5719 5714 5707 5701 5696 5690 5686 5682 5680 5671 5663 5650 5651 5642 5633 5622 5614 5611 5590
5752 5755 5755 5754 5755 5755 5755 5755 5755 5754 5753 5752 5751 5749 5747 5744 5741 5739 5739 5737 5734 5730 5726 5724 5723 5718 5713 5710 5706 5698 5693 5689 5684 5679 5674 5673 5670 5659 5653 5644 5639 5629 5623 5613 5598 5591 5585
Wind_Speed
13 11 9 8 5 3 1 3 6 8 8 7 6 5 4 2 2 2 1 1 2 2 3 5 7 8 8 8 10 10 9 10 11 11 12 12 11 12 13 17 20 21 24 26 28 30 30
11 9 7 6 4 2 3 6 8 8 7 6 6 5 5 4 3 3 2 2 3 3 3 6 8 10 12 12 12 11 10 11 12 12 12 12 12 13 14 18 20 22 24 27 30 30 30
10 7 6 5 3 3 5 8 6 4 5 5 4 4 3 3 3 3 2 3 4 4 5 8 11 11 12 12 12 11 11 12 12 13 12 13 13 14 16 18 20 22 25 28 29 31 32
11 9 5 3 2 3 9 5 3 4 5 5 3 2 1 3 3 2 3 3 3 4 7 10 12 13 13 13 14 15 14 13 15 15 15 15 14 14 16 18 20 22 25 28 30 31 33
9 8 5 3 4 6 7 1 3 7 7 5 4 3 2 2 3 2 2 2 3 6 9 11 13 12 14 14 16 16 16 16 18 19 18 16 14 14 16 18 20 22 25 28 29 32 32
8 8 5 3 5 8 1 0 4 8 7 3 4 5 3 3 1 2 2 2 4 7 9 13 14 14 17 18 20 20 20 20 19 19 17 14 12 14 17 19 21 21 24 27 31 33 34
8 6 5 5 6 3 3 1 5 7 5 1 3 6 4 1 2 1 1 4 6 10 13 15 17 18 18 19 19 20 18 19 18 18 14 13 14 16 18 21 23 25 28 30 33 36 36
7 5 4 5 5 3 3 2 3 5 6 6 3 2 3 1 2 1 4 7 11 15 17 16 17 17 19 20 22 22 22 20 18 15 13 13 16 18 22 24 27 29 31 34 34 40 43
7 5 4 4 3 4 3 2 2 3 4 6 7 6 5 2 2 6 9 11 13 15 17 18 17 19 20 21 22 20 19 18 16 15 15 16 19 22 24 27 30 33 35 37 41 42 42
6 4 4 4 5 5 3 2 1 0 3 2 2 3 3 4 5 7 9 13 16 16 15 16 16 17 18 19 19 19 18 17 16 18 18 19 21 24 27 30 32 35 38 40 43 45 41
6 4 3 4 5 5 4 3 2 2 2 2 3 4 5 5 7 10 13 15 16 15 15 16 17 18 18 20 21 19 17 19 19 19 20 22 24 27 29 31 33 37 40 44 44 43 41
7 5 4 4 6 5 5 3 3 2 3 3 3 3 5 7 9 12 14 16 16 15 15 16 17 16 18 20 24 23 19 18 20 20 21 24 26 27 29 31 34 38 42 43 45 42 40
8 8 7 7 6 5 4 2 1 2 3 5 6 7 8 9 11 13 15 16 16 15 15 15 16 17 19 20 23 23 22 21 21 19 20 22 26 27 29 33 34 36 40 43 45 41 42
11 10 9 8 7 5 4 3 4 5 6 8 9 9 10 11 13 15 16 17 17 16 16 17 17 19 20 21 22 24 24 24 25 27 26 23 26 28 31 33 35 36 40 44 43 43 43
12 12 12 11 10 9 8 8 8 9 10 12 12 10 11 13 14 17 17 18 18 18 18 18 19 20 21 22 25 24 25 26 28 31 33 33 31 33 35 35 35 37 39 40 43 43 45
13 12 13 13 12 12 12 12 12 12 13 14 11 11 13 15 16 17 18 17 19 20 21 22 23 24 25 26 28 29 29 30 32 34 34 36 35 34 36 37 34 35 36 42 44 48 50
11 12 13 14 14 14 14 15 15 16 15 13 13 15 16 17 18 19 20 20 21 23 24 26 28 29 30 30 33 34 34 34 35 37 38 39 37 36 37 40 34 35 35 41 44 49 52
14 14 13 14 14 15 15 15 15 14 14 15 17 18 20 20 20 23 25 25 27 27 29 31 33 35 36 38 36 36 38 37 37 38 40 39 39 38 37 40 39 31 38 41 46 48 50
18 16 15 16 16 16 15 16 17 18 18 20 22 22 22 23 26 27 28 29 30 31 34 37 38 38 39 40 41 38 37 36 39 39 39 39 40 43 39 44 42 31 40 45 48 47 51
22 20 20 19 18 18 20 21 21 21 22 23 25 27 28 29 30 31 30 32 35 37 38 40 41 41 41 40 41 41 41 40 39 39 38 39 37 35 30 35 39 34 37 46 46 53 57
27 25 25 24 24 23 24 25 26 26 27 29 30 31 32 34 34 35 36 38 41 40 41 44 44 43 43 44 43 41 39 40 37 39 38 39 41 42 31 40 44 37 40 48 54 53 53
32 31 31 31 31 31 31 31 32 32 33 34 36 36 36 37 39 40 42 43 44 45 46 47 47 46 46 47 46 45 43 40 40 40 40 39 45 48 42 46 50 46 49 55 52 49 51
36 37 37 37 37 37 37 38 37 38 39 41 42 43 42 42 42 43 46 49 51 52 53 52 51 52 50 44 44 42 41 42 42 43 43 44 47 50 51 49 53 47 47 52 53 50 52
42 42 42 42 42 42 43 43 43 44 45 46 47 48 50 49 50 51 52 53 55 56 57 58 55 53 47 44 45 44 43 43 42 43 43 44 45 49 51 51 55 42 43 50 57 55 56
46 46 46 45 46 47 47 47 48 48 50 51 52 56 60 59 51 52 54 55 57 58 59 55 50 45 42 43 46 47 46 44 45 45 43 43 43 45 50 55 58 47 53 56 58 54 57
48 48 49 49 50 47 49 53 55 56 59 62 62 66 66 64 61 58 59 60 56 52 51 50 44 40 42 46 45 44 48 47 48 49 47 47 43 45 51 56 57 48 56 59 57 56 60
57 55 55 58 60 62 61 59 60 59 61 61 56 56 59 61 61 61 60 53 47 47 49 48 43 43 43 46 43 44 49 51 52 52 48 48 43 45 48 55 52 54 58 59 64 68 63
69 67 68 71 66 62 59 61 58 56 54 56 55 52 53 54 54 53 49 45 44 43 45 47 47 46 46 46 46 48 55 56 56 56 50 49 43 45 49 56 55 58 61 65 66 66 74
53 58 54 53 54 55 53 52 49 48 48 49 49 47 49 49 50 48 48 46 46 45 46 46 45 46 47 45 51 55 57 57 54 55 51 45 40 51 53 58 56 61 60 65 68 71 70
Wind_Direction
143 141 144 149 149 154 160 295 283 276 276 275 274 270 273 264 258 256 258 297 295 312 316 332 340 344 340 331 326 317 303 297 300 306 316 319 314 306 313 317 320 327 331 335 337 332 330
153 149 149 151 144 159 319 315 290 277 275 270 272 274 270 259 248 249 249 280 291 286 300 330 338 335 338 332 326 320 310 304 304 308 310 312 313 303 306 315 318 326 332 335 335 330 328
172 164 159 167 188 219 311 314 301 294 290 287 284 278 270 246 229 230 254 281 279 276 292 327 332 326 327 328 325 320 319 312 311 304 300 308 307 298 304 311 319 327 334 334 331 329 329
186 185 184 194 251 278 324 315 318 315 303 287 267 249 204 198 208 221 257 285 284 291 308 320 325 327 323 325 326 323 316 310 312 307 301 302 297 292 300 311 323 327 333 331 330 332 330
185 184 197 233 296 303 321 305 336 326 320 296 245 204 179 179 200 253 294 301 306 321 324 326 327 324 326 319 320 317 315 312 313 316 309 298 289 290 302 312 321 328 329 331 330 332 331
192 197 211 249 275 312 286 321 342 347 333 305 218 208 202 218 254 316 316 332 331 327 325 325 324 319 322 319 319 318 315 315 314 314 309 295 286 293 306 314 319 323 331 334 338 337 334
195 201 221 256 280 295 175 306 345 359 358 11 203 207 207 232 341 65 22 334 328 325 320 321 319 319 321 325 325 323 325 327 326 322 311 295 292 303 312 314 320 328 331 336 341 341 338
178 194 213 240 281 186 188 284 337 0 25 52 79 144 170 151 123 10 328 318 321 323 325 327 330 328 324 325 325 327 329 331 328 325 308 300 302 309 312 316 323 329 328 332 337 339 337
183 193 221 250 213 187 210 276 312 5 45 68 79 92 108 106 344 329 327 327 329 330 331 325 327 325 327 326 328 328 332 331 330 328 316 307 309 311 311 317 321 325 327 331 334 336 338
185 198 235 231 194 189 203 238 224 90 54 53 53 40 11 352 349 348 343 338 334 330 331 332 334 334 334 335 335 335 338 336 333 329 321 316 315 317 319 319 322 324 327 329 331 333 335
207 229 232 207 193 186 176 146 111 90 75 53 35 42 38 20 357 346 340 338 336 337 340 338 338 338 346 354 349 340 341 340 336 332 327 326 323 321 323 326 326 327 326 326 327 329 336
230 229 209 174 168 165 151 134 112 85 64 54 40 11 347 341 335 336 338 338 338 345 348 351 354 0 358 360 3 4 355 343 340 336 332 326 326 329 329 327 328 326 323 322 325 329 336
228 218 195 176 171 168 167 166 90 28 16 0 349 338 329 331 333 336 336 336 338 342 343 346 346 343 344 347 348 349 348 347 343 339 337 336 329 330 328 328 327 324 321 323 324 328 333
224 210 199 197 198 208 227 259 291 308 323 334 341 337 332 335 334 333 332 335 335 333 333 333 337 337 334 332 332 337 337 335 336 337 335 334 328 329 328 327 330 331 325 325 326 329 328
223 217 218 221 231 241 257 275 288 293 306 320 326 326 331 331 327 327 333 337 336 334 330 326 323 324 325 329 330 332 332 333 330 330 332 331 336 334 329 331 333 332 325 324 324 323 326
226 229 233 238 244 255 264 272 281 288 300 310 309 314 320 320 321 326 329 331 331 332 333 333 330 323 321 325 327 327 328 329 328 327 327 327 332 331 330 331 336 333 327 326 324 328 327
231 235 242 248 252 258 264 272 279 286 292 293 297 302 306 310 319 323 326 325 326 326 326 324 324 324 324 323 322 322 323 324 324 325 322 321 325 330 331 328 333 334 328 323 323 325 323
243 249 254 260 265 268 271 276 279 282 284 287 290 294 303 309 312 316 319 320 319 321 322 323 322 320 318 317 318 318 320 321 321 320 318 319 321 325 333 326 332 337 328 323 319 320 320
247 253 258 261 264 266 271 275 279 280 282 286 292 297 302 303 307 310 312 315 317 318 318 318 316 313 313 313 312 315 315 316 319 321 316 318 322 323 330 326 331 337 328 321 314 314 317
249 254 261 266 270 272 273 273 276 279 283 287 292 296 298 300 303 304 306 309 312 312 313 314 313 314 314 314 311 312 311 314 319 322 320 319 321 326 333 323 325 325 318 313 311 314 313
254 258 261 265 268 270 272 276 278 280 283 287 290 292 297 299 300 300 301 304 308 310 311 312 312 310 310 312 311 311 309 309 314 319 321 321 320 321 331 323 319 322 316 311 309 313 313
254 258 262 266 269 270 272 274 277 280 282 284 288 290 292 294 296 298 300 302 304 305 310 310 308 308 310 310 310 312 314 314 314 317 318 318 318 320 327 322 317 318 319 310 311 310 314
254 257 260 263 267 270 273 275 278 279 281 284 286 287 289 292 294 296 299 300 303 304 306 308 305 304 307 307 307 309 310 311 313 315 317 317 315 317 322 324 315 321 314 310 309 313 318
254 257 260 263 265 268 271 273 276 278 279 281 283 283 286 291 294 296 299 299 299 300 303 307 303 301 303 304 305 307 309 309 309 309 311 309 311 314 319 319 312 324 311 305 309 316 315
257 259 261 264 266 269 273 275 276 279 282 282 282 283 285 290 291 296 294 296 298 296 300 301 300 299 301 305 306 308 307 304 306 309 310 309 312 316 320 315 315 320 309 310 315 320 314
260 264 265 265 264 270 273 274 278 279 284 285 286 283 284 284 289 291 292 293 296 297 296 297 293 293 299 303 305 306 305 307 307 309 311 315 318 321 316 309 312 316 308 314 320 322 319
260 260 262 264 267 271 274 275 277 278 281 286 284 286 285 285 286 288 291 292 295 296 297 295 292 293 301 302 304 303 301 303 305 308 312 309 314 317 306 305 312 313 315 319 319 316 316
258 262 262 266 266 270 273 276 277 278 281 280 282 284 284 287 289 288 289 292 294 294 294 294 291 296 296 301 298 301 300 302 306 305 308 310 318 310 305 304 316 314 316 316 314 317 317
260 264 268 263 265 266 270 272 275 278 280 283 284 283 287 289 292 291 291 292 291 293 292 293 294 294 295 296 298 298 299 301 304 306 306 310 315 303 306 309 314 314 313 315 315 316 316